Regional Weather Roundup
Issued by NWS

Home | Current Version | Previous Version | Graphics & Text | Print | Product List | Glossary On
Versions: 1 2 3 4 5 6 7 8 9 10 11 12 13 14 15 16 17 18 19 20 21 22 23 24 25 26 27 28 29 30 31 32 33 34 35 36 37 38 39 40 41 42 43 44 45 46 47 48 49 50
000
ASUS43 KFSD 251502
RWRSD

WEATHER ROUNDUP FOR SOUTH DAKOTA
NATIONAL WEATHER SERVICE SIOUX FALLS SD
900 AM CST TUE NOV 25 2014

NOTE: "FAIR" INDICATES FEW OR NO CLOUDS BELOW 12,000 FEET WITH NO
SIGNIFICANT WEATHER AND/OR OBSTRUCTIONS TO VISIBILITY.


SDZ001>005-009-010-012>017-251600-
NORTHWEST AND NORTH CENTRAL SOUTH DAKOTA

CITY           SKY/WX    TMP DP  RH WIND       PRES   REMARKS
BUFFALO          N/A     32  22  66 W6        29.70F WCI  26
FAITH            N/A     27  22  81 S9        29.83S WCI  18
MOBRIDGE       CLOUDY    26  23  88 S8        29.86F WCI  18
$$

SDZ012>016-024>037-041>051-057-063-072>074-251600-
SOUTHWEST AND SOUTH CENTRAL SOUTH DAKOTA

CITY           SKY/WX    TMP DP  RH WIND       PRES   REMARKS
RAPID CTY ARPT CLOUDY    29  21  72 SW7       29.83S WCI  22
PIERRE         CLOUDY    25  22  88 S3        29.90F
CUSTER         CLOUDY    23  13  65 W9        29.77F WCI  13
ELLSWORTH AFB  MOCLDY    31  22  69 NW6       29.81F WCI  25
PHILIP         CLOUDY   N/A N/A N/A NW3       29.88F
PINE RIDGE     CLOUDY    27  22  81 CALM      29.87F
WINNER         FAIR      28  21  75 S8        29.94F WCI  20
$$

SDZ004>011-016>023-039-040-251600-
NORTHEAST SOUTH DAKOTA

CITY           SKY/WX    TMP DP  RH WIND       PRES   REMARKS
ABERDEEN       CLOUDY    25  20  81 SE8       29.94F WCI  16
WATERTOWN      CLOUDY    20  13  74 S7        29.95R WCI  11
SISSETON         N/A     26  16  65 W7        29.95S WCI  18
$$

SDZ017-020-022-023-036>040-048>070-251600-
SOUTHEAST SOUTH DAKOTA

CITY           SKY/WX    TMP DP  RH WIND       PRES   REMARKS
SIOUX FALLS    PTSUNNY   20  11  68 S6        30.02R WCI  12
HURON          MOSUNNY   24  18  77 S7        29.97S WCI  16
CHAMBERLAIN    PTSUNNY   25  23  91 S5        29.95F WCI  19
MITCHELL       MOSUNNY   24  18  77 S6        30.00S WCI  17
YANKTON        SUNNY     21  16  79 SE3       30.04S
$$

ABBREVIATIONS USED IN REMARKS
   TC - TEMPERATURE IN CELSIUS
  WCI - WIND CHILL INDEX
   HX - HEAT INDEX
  VSB - VISIBILITY



USA.gov is the U.S. government's official web portal to all federal, state and local government web resources and services.